Regional Weather Roundup
Issued by NWS Boston, MA

Home | Current Version | Previous Version | Text Only | Print | Product List | Glossary On
Versions: 1 2 3 4 5 6 7 8 9 10 11 12 13 14 15 16 17 18 19 20 21 22 23 24 25 26 27
000
ASUS41 KBOX 262210
RWRBOX

REGIONAL WEATHER ROUNDUP
NATIONAL WEATHER SERVICE TAUNTON MA
500 PM EST SUN FEB 26 2017

NOTE:  "FAIR" INDICATES FEW OR NO CLOUDS BELOW 12,000 FEET WITH NO
SIGNIFICANT WEATHER AND/OR OBSTRUCTIONS TO VISIBILITY.

MAZALL-262300-
EASTERN MASSACHUSETTS

CITY           SKY/WX    TMP DP  RH WIND       PRES   REMARKS
BOSTON         PTCLDY    39  14  36 W21G29    29.95R WCI  29
BEVERLY        CLEAR     39  14  36 W16G25    29.93R WCI  30
LAWRENCE       PTCLDY    37  13  37 NW14G25   29.94R WCI  28
BEDFORD        PTCLDY    37  10  32 W14G26    29.95R WCI  28
BLUE HILL        N/A     35  13  40 W16G30    29.93R WCI  25
NORWOOD        CLEAR     39  13  34 W14G24    29.97R WCI  31
MARSHFIELD     CLEAR     41  14  33 W12G22    29.95R
PLYMOUTH       CLEAR     40  14  34 W20G26    29.95R WCI  30
TAUNTON        CLEAR     40  14  34 W12G25    29.96R
NEW BEDFORD    CLEAR     40  14  34 W18G31    29.97R WCI  31
$$

MAZALL-262300-
CAPE COD AND THE ISLANDS

CITY           SKY/WX    TMP DP  RH WIND       PRES   REMARKS
FALMOUTH       CLEAR     41  16  36 MISG      29.96R
HYANNIS        CLEAR     42  17  36 W9        29.93R
CHATHAM        CLEAR     42  19  39 W8G18     29.95R
PROVINCETOWN   CLEAR     41  21  44 W16       29.95R
NANTUCKET      CLEAR     40  23  50 W20       29.97R WCI  30
MARTHAS VNYRD  CLEAR     41  18  39 W13G23    29.97R
$$

MAZALL-262300-
CENTRAL AND WESTERN MASSACHUSETTS

CITY           SKY/WX    TMP DP  RH WIND       PRES   REMARKS
WORCESTER      PTCLDY    32  11  41 W16G29    29.95R WCI  21
FITCHBURG      CLEAR     36  13  38 W18G25    29.97R WCI  26
ORANGE         CLOUDY    33  15  47 NW13G23   29.99R WCI  24
SPRINGFIELD    MOCLDY    35  13  39 W13G25    30.01R WCI  26
WESTFIELD      MOCLDY    35  16  45 NW17G26   30.03R WCI  25
NORTH ADAMS    PTCLDY    31  15  52 W16       30.01R WCI  20
PITTSFIELD     CLOUDY    29  15  56 W13G23    30.00R WCI  19
$$

RIZALL-262300-
RHODE ISLAND

CITY           SKY/WX    TMP DP  RH WIND       PRES   REMARKS
PROVIDENCE     PTCLDY    39  12  33 NW16G22   30.00R WCI  30
NEWPORT        CLEAR     39  16  39 W13G25    29.99R WCI  31
BLOCK ISLAND   CLEAR     39  20  46 NW12G20   30.02R WCI  32
SMITHFIELD     CLEAR     36  13  38 W13G18    29.98R WCI  27
WESTERLY       CLEAR     40  13  33 NW9G18    30.03R
$$

CTZALL-262300-
CONNECTICUT

CITY           SKY/WX    TMP DP  RH WIND       PRES   REMARKS
BRADLEY INTL   MOCLDY    36  16  44 W15       30.04R WCI  27
HARTFORD       CLOUDY    37  17  44 NW14G24   30.05R WCI  28
BRIDGEPORT     PTCLDY    41  15  35 W16       30.07R
DANBURY        PTCLDY    35  14  42 W10G20    30.07R WCI  27
GROTON         CLEAR     40  16  37 NW13      30.02R
NEW HAVEN      PTCLDY    39  16  39 NW12G20   30.05R WCI  32
CHESTER        FAIR      37  14  38 NW9G18    30.02R WCI  31
MERIDEN        PTCLDY    40  14  34 NW14G21   30.04R
WILLIMANTIC    MOCLDY    38  16  40 W12G28    30.03R WCI  30
OXFORD         PTCLDY    36  12  38 NW13G18   30.04R WCI  27
$$

MEZ002-015-021-024-NHZ003-005-008-011-012-014-VTZ005-008-262300-
NORTHERN NEW ENGLAND

CITY           SKY/WX    TMP DP  RH WIND       PRES   REMARKS
PORTLAND ME    PTCLDY    36  14  40 W18G28    29.88R WCI  26
BANGOR ME      PTCLDY    31  12  45 W14G28    29.84R WCI  21
CONCORD NH     MOCLDY    35  11  36 W17G26    29.94R WCI  25
MANCHESTER NH  CLOUDY    37  10  32 NW9       29.94R WCI  30
NASHUA NH      PTCLDY    37  12  35 W12G22    29.96R WCI  29
PORTSMOUTH NH  MOCLDY    37  13  36 W16       29.91R WCI  28
JAFFREY NH     MOCLDY    32  11  41 W8G23     29.94R WCI  25
KEENE NH       CLOUDY    34  13  41 W8        29.99R WCI  27
BURLINGTON VT  PTCLDY    33   9  36 NW12      29.99R WCI  24
MT. WASHINGTON FOG        1   1 100 W59G68      N/A  VSB 1/16WCI -31
$$

NYZ052-076-262300-
EASTERN NEW YORK

CITY           SKY/WX    TMP DP  RH WIND       PRES   REMARKS
ALBANY         MOCLDY    34  19  54 W14       30.07R WCI  25
NEW YORK CITY  PTCLDY    44  16  32 W18G24    30.08R
$$

ANZALL-262300-
MARINE OBSERVATIONS

STATION/POSITION TIME  TEMP    WIND        PRES    VSBY  WAVE
                       AIR SEA DIR/SP/G                  HT/PER
                 (UTC) (F)     (DEG/KT/KT) (MB)    (MI)  (FT/S)
BOSTON BUOY      2050   41 42  270/ 19/ 23 1011.3          3/11
BUZZARDS BAY     2100   40     280/ 20/ 23 1014.4R
NANTUCKET SOUND  2050   41 41  270/ 16/ 19 1012.8          3/ 4
MASS BAY-STELLWA 2104   41 42  300/ 21/ 25 1011.0R         4/ 9
ISLE OF SHOALS   2100   39     270/ 25/ 28 1010.9R
S OF BLOCK IS    2155      43                N/A           7/10
$$

......................KEY.........................
  SKY/WX - SKY CONDITION/PRESENT WEATHER
  TMP    - TEMPERATURE IN FAHRENHEIT
  DWPT   - DEWPOINT IN FAHRENHEIT
  RH     - RELATIVE HUMIDITY IN PERCENT
  WIND   - DIRECTION AND SPEED IN MPH
  PRES   - MEAN SEA LEVEL PRESSURE IN INCHES OF HG
  WCI    - WIND CHILL INDEX
  VSB    - VISIBILITY IN MILES
  HX     - HEAT INDEX
  TC     - TEMPERATURE IN CELSIUS
  VRB    - VARIABLE WIND DIRECTION
  N/A    - NOT AVAILABLE




USA.gov is the U.S. government's official web portal to all federal, state and local government web resources and services.